DELTA 1 DEB, 19360

Orbit data source: Space-Track

DELTA 1 DEB, 19360 is space debris in SSO originally from a launch on Tue, 06 Nov 1973 UTC launched from the Air Force Western Test Range (AFWTR). Debris objects in space refer to the collection of defunct objects orbiting the Earth. Examples of debris include non-operational satellites, rocket bodies, and fragments generated from explosions, collisions, or faulty payload assembly.

Loading next visibility...
Identifier
19360, 1973-086HE
Orbit
SSO
Country
Flag of USUS
Related business
Manufacturer
Unknown
Mission
Spacecraft
Bus & Motor
Unknown
Mass
Unknown
Launch date (UTC)
1973-11-06 (53 years ago)
Launch vehicle
Unknown
Launch site
Air Force Western Test Range (AFWTR)
Object type
Payload
Rocket body
Debris
Shape & HBR
Unknown shape, 0.1 m
Radar Cross Section
Medium (>0.1 m² and <1 m²)

Expand to show TLE details & history
Last TLE update: 1 day ago

TLE from 1 day ago
0 DELTA 1 DEB
1 19360U 73086HE  26206.16164251 -.00000196  00000-0 -88962-3 0  9999
2 19360 101.8902 285.0619 0048028  59.2850 330.4882 12.57235379884602
Epoch: 2026-07-25T03:52Z
TLE epoch observation values (Epoch: 2026-07-25T03:52:45.912Z)
Latitude
28.85276°
Longitude
-82.63583°
Altitude
1,405.047 km
Speed
7.175 km/s
True Right ascension
18h 33m 44s
True Declination
28° 43' 11"
Sunlit
Object was in full shadow at epoch
Visualization orbit readout
Latitude
Unknown
Longitude
Unknown
Altitude
Unknown
Speed
Unknown
Apparent Right ascension
Unknown
Apparent Declination
Unknown
Sunlit
N/A
Visualization observer readout
Local Sidereal Time
21:18:19
Azimuth
Unknown
Elevation
Unknown
Doppler factor
Unknown
Orbital elements
Apogee altitude
1,469.432 km
Perigee altitude
1,394.412 km
Semi-major axis
7,810.059 km
Eccentricity
0.0048
Inclination
101.8902°
RAAN
285.0619°
Arg. of periapsis
59.285°
True anomaly
330.21567°
Mean anomaly
330.4882°
Eccentric anomaly
330.35208°
Mean motion
3.14457 °/min
Orbital period
114.48 mins
BSTAR
-0.00088962
Loading maneuver chart data...
Computing Atmospheric mass density...
Loading historical data...
Loading historical data...
Loading historical data...
Loading historical data...
Loading historical data...
Loading historical data...
Loading historical data...

Documentation

Showing up to 5 results
|